Meteo pe oră la Abakumovo

Astăzi, 29 Iulie, Joi

Timp Temperatura Precipitaţii Vânt Presiune Umiditate
00:00 +16°C° 0 mm 1 m/s 739 mmHg 98%
01:00 +16°C° 0 mm 1 m/s 739 mmHg 98%
02:00 +16°C° 0 mm 1 m/s 739 mmHg 98%
03:00 +16°C° 0 mm 1 m/s 739 mmHg 97%
04:00 +16°C° 0 mm 1 m/s 738 mmHg 96%
05:00 +16°C° 0 mm 1 m/s 738 mmHg 95%
06:00 +18°C° 0 mm 2 m/s 738 mmHg 87%
07:00 +20°C° 0 mm 2 m/s 738 mmHg 78%
08:00 +23°C° 0 mm 2 m/s 738 mmHg 70%
09:00 +22°C° 0.1 mm 3 m/s 738 mmHg 68%
10:00 +24°C° 0.1 mm 3 m/s 737 mmHg 66%
11:00 +25°C° 0.1 mm 3 m/s 737 mmHg 63%
12:00 +25°C° 0.1 mm 3 m/s 737 mmHg 60%
13:00 +26°C° 0.1 mm 3 m/s 737 mmHg 56%
14:00 +26°C° 0.1 mm 3 m/s 737 mmHg 52%
15:00 +26°C° 0 mm 3 m/s 736 mmHg 52%
16:00 +26°C° 0 mm 3 m/s 736 mmHg 51%
17:00 +27°C° 0 mm 3 m/s 736 mmHg 51%
18:00 +25°C° 0.2 mm 3 m/s 736 mmHg 61%
19:00 +22°C° 0.2 mm 3 m/s 736 mmHg 71%
20:00 +20°C° 0.2 mm 3 m/s 736 mmHg 80%
21:00 +19°C° 0 mm 2 m/s 736 mmHg 85%
22:00 +18°C° 0 mm 2 m/s 736 mmHg 90%
23:00 +17°C° 0 mm 2 m/s 736 mmHg 95%

Mâine, 30 Iulie, Vineri

Timp Temperatura Precipitaţii Vânt Presiune Umiditate
00:00 +16°C° 0 mm 2 m/s 736 mmHg 96%
01:00 +16°C° 0 mm 2 m/s 736 mmHg 97%
02:00 +16°C° 0 mm 2 m/s 736 mmHg 98%
03:00 +16°C° 0 mm 2 m/s 736 mmHg 97%
04:00 +16°C° 0 mm 2 m/s 736 mmHg 96%
05:00 +17°C° 0 mm 2 m/s 736 mmHg 96%
06:00 +18°C° 0.1 mm 2 m/s 736 mmHg 88%
07:00 +20°C° 0.1 mm 2 m/s 736 mmHg 81%
08:00 +23°C° 0.1 mm 2 m/s 736 mmHg 73%
09:00 +22°C° 0.4 mm 3 m/s 736 mmHg 70%
10:00 +24°C° 0.4 mm 3 m/s 736 mmHg 67%
11:00 +24°C° 0.4 mm 3 m/s 736 mmHg 64%
12:00 +25°C° 0.3 mm 3 m/s 736 mmHg 60%
13:00 +25°C° 0.3 mm 3 m/s 736 mmHg 56%
14:00 +26°C° 0.3 mm 3 m/s 736 mmHg 52%
15:00 +25°C° 0 mm 3 m/s 736 mmHg 51%
16:00 +24°C° 0 mm 3 m/s 736 mmHg 51%
17:00 +22°C° 0 mm 3 m/s 736 mmHg 51%
18:00 +20°C° 0 mm 2 m/s 736 mmHg 55%
19:00 +19°C° 0 mm 2 m/s 735 mmHg 60%
20:00 +19°C° 0 mm 1 m/s 735 mmHg 65%
21:00 +18°C° 0 mm 1 m/s 735 mmHg 66%
22:00 +18°C° 0 mm 1 m/s 735 mmHg 67%
23:00 +17°C° 0 mm 2 m/s 735 mmHg 68%

Poimâine, 31 Iulie, Sâmbătă

Timp Temperatura Precipitaţii Vânt Presiune Umiditate
00:00 +17°C° 0.1 mm 2 m/s 735 mmHg 74%
01:00 +16°C° 0.1 mm 2 m/s 735 mmHg 81%
02:00 +16°C° 0.1 mm 2 m/s 734 mmHg 88%
03:00 +15°C° 0 mm 2 m/s 734 mmHg 88%
04:00 +14°C° 0 mm 3 m/s 734 mmHg 88%
05:00 +14°C° 0 mm 3 m/s 734 mmHg 89%
06:00 +14°C° 0 mm 3 m/s 734 mmHg 84%
07:00 +14°C° 0 mm 3 m/s 734 mmHg 79%
08:00 +16°C° 0 mm 3 m/s 734 mmHg 75%
09:00 +17°C° 0 mm 4 m/s 734 mmHg 69%
10:00 +19°C° 0 mm 4 m/s 734 mmHg 64%
11:00 +20°C° 0 mm 5 m/s 734 mmHg 58%
12:00 +20°C° 0 mm 5 m/s 734 mmHg 58%
13:00 +21°C° 0 mm 5 m/s 734 mmHg 59%
14:00 +21°C° 0 mm 5 m/s 734 mmHg 59%
15:00 +21°C° 0.1 mm 5 m/s 735 mmHg 61%
16:00 +21°C° 0.1 mm 5 m/s 735 mmHg 63%
17:00 +21°C° 0.1 mm 5 m/s 735 mmHg 66%
18:00 +20°C° 0.1 mm 4 m/s 735 mmHg 72%
19:00 +19°C° 0.1 mm 4 m/s 735 mmHg 79%
20:00 +18°C° 0.1 mm 3 m/s 736 mmHg 86%
21:00 +17°C° 0 mm 3 m/s 736 mmHg 89%
22:00 +17°C° 0 mm 3 m/s 736 mmHg 92%
23:00 +16°C° 0 mm 3 m/s 737 mmHg 95%

1 August, Duminică

Timp Temperatura Precipitaţii Vânt Presiune Umiditate
00:00 +16°C° 0 mm 2 m/s 737 mmHg 96%
01:00 +15°C° 0 mm 2 m/s 737 mmHg 97%
02:00 +15°C° 0 mm 2 m/s 737 mmHg 98%
03:00 +15°C° 0 mm 2 m/s 737 mmHg 97%
04:00 +15°C° 0 mm 1 m/s 737 mmHg 96%
05:00 +16°C° 0 mm 1 m/s 737 mmHg 96%
06:00 +17°C° 0 mm 2 m/s 737 mmHg 89%
07:00 +18°C° 0 mm 2 m/s 737 mmHg 83%
08:00 +20°C° 0 mm 3 m/s 737 mmHg 77%
09:00 +21°C° 0.1 mm 3 m/s 737 mmHg 72%
10:00 +21°C° 0.1 mm 4 m/s 737 mmHg 67%
11:00 +22°C° 0.1 mm 4 m/s 737 mmHg 62%
12:00 +21°C° 0.3 mm 4 m/s 737 mmHg 68%
13:00 +20°C° 0.3 mm 4 m/s 737 mmHg 73%
14:00 +19°C° 0.3 mm 4 m/s 737 mmHg 78%
15:00 +20°C° 0.1 mm 4 m/s 737 mmHg 73%
16:00 +21°C° 0.1 mm 4 m/s 737 mmHg 68%
17:00 +24°C° 0.1 mm 3 m/s 737 mmHg 62%
18:00 +21°C° 0 mm 3 m/s 737 mmHg 70%
19:00 +19°C° 0 mm 2 m/s 737 mmHg 77%
20:00 +18°C° 0 mm 2 m/s 737 mmHg 84%
21:00 +17°C° 0 mm 2 m/s 737 mmHg 88%
22:00 +16°C° 0 mm 2 m/s 738 mmHg 91%
23:00 +16°C° 0 mm 2 m/s 738 mmHg 94%

2 August, Luni

Timp Temperatura Precipitaţii Vânt Presiune Umiditate
00:00 +16°C° 0 mm 2 m/s 738 mmHg 93%
01:00 +15°C° 0 mm 2 m/s 738 mmHg 93%
02:00 +15°C° 0 mm 2 m/s 738 mmHg 92%
03:00 +16°C° 0 mm 1 m/s 738 mmHg 90%
04:00 +16°C° 0 mm 1 m/s 738 mmHg 87%
05:00 +16°C° 0 mm 1 m/s 738 mmHg 85%
06:00 +19°C° 0 mm 1 m/s 738 mmHg 78%
07:00 +20°C° 0 mm 2 m/s 738 mmHg 71%
08:00 +21°C° 0 mm 2 m/s 738 mmHg 64%
09:00 +24°C° 0 mm 2 m/s 738 mmHg 58%
10:00 +25°C° 0 mm 2 m/s 738 mmHg 52%
11:00 +26°C° 0 mm 2 m/s 738 mmHg 45%
12:00 +26°C° 0 mm 2 m/s 738 mmHg 45%
13:00 +27°C° 0 mm 2 m/s 737 mmHg 44%
14:00 +27°C° 0 mm 2 m/s 737 mmHg 44%
15:00 +25°C° 0.1 mm 2 m/s 736 mmHg 52%
16:00 +24°C° 0.1 mm 2 m/s 736 mmHg 60%
17:00 +21°C° 0.1 mm 2 m/s 736 mmHg 68%
18:00 +20°C° 0.1 mm 2 m/s 735 mmHg 74%
19:00 +19°C° 0.1 mm 2 m/s 734 mmHg 79%
20:00 +18°C° 0.1 mm 3 m/s 733 mmHg 85%
21:00 +18°C° 0.2 mm 3 m/s 733 mmHg 89%
22:00 +18°C° 0.2 mm 3 m/s 732 mmHg 92%
23:00 +18°C° 0.2 mm 3 m/s 732 mmHg 96%

3 August, Marţi

Timp Temperatura Precipitaţii Vânt Presiune Umiditate
00:00 +18°C° 0.1 mm 4 m/s 732 mmHg 96%
01:00 +18°C° 0.1 mm 4 m/s 732 mmHg 96%
02:00 +17°C° 0.1 mm 4 m/s 732 mmHg 95%
03:00 +17°C° 0 mm 4 m/s 733 mmHg 95%
04:00 +15°C° 0 mm 4 m/s 733 mmHg 94%
05:00 +14°C° 0 mm 4 m/s 734 mmHg 94%
06:00 +15°C° 0 mm 4 m/s 734 mmHg 89%
07:00 +15°C° 0 mm 4 m/s 735 mmHg 85%
08:00 +17°C° 0 mm 4 m/s 735 mmHg 81%
09:00 +18°C° 0.1 mm 4 m/s 735 mmHg 72%
10:00 +19°C° 0.1 mm 4 m/s 736 mmHg 64%
11:00 +21°C° 0.1 mm 5 m/s 736 mmHg 55%
12:00 +22°C° 0.1 mm 5 m/s 736 mmHg 49%
13:00 +22°C° 0.1 mm 5 m/s 736 mmHg 44%
14:00 +23°C° 0.1 mm 5 m/s 736 mmHg 38%
15:00 +22°C° 0 mm 5 m/s 737 mmHg 44%
16:00 +22°C° 0 mm 5 m/s 737 mmHg 50%
17:00 +21°C° 0 mm 5 m/s 737 mmHg 56%
18:00 +20°C° 0 mm 4 m/s 737 mmHg 62%
19:00 +18°C° 0 mm 4 m/s 738 mmHg 68%
20:00 +17°C° 0 mm 3 m/s 738 mmHg 75%
21:00 +16°C° 0 mm 3 m/s 738 mmHg 78%
22:00 +16°C° 0 mm 3 m/s 738 mmHg 82%
23:00 +14°C° 0 mm 3 m/s 738 mmHg 86%
Arată mai mult

Formular de consimțământ

Meteoprog și furnizorii noștri de servicii pot stoca și accesa date personale, precum cookies, identificatori de dispozitiv sau alte tehnologii similare pe dispozitivul dumneavoastră și procesa astfel de date pentru a personaliza conținutul și reclamele, dar și pentru a oferi caracteristici de social media și pentru a analiza traficul.

  • Stocarea și/sau accesarea informațiilor pe dispozitivul dumneavoastră

    Cookies, identificatori de dispozitiv sau alte informații pot fi stocate sau accesate pe dispozitiv în scopurile indicate mai sus.

  • Reclame și conținut personalizat, evaluarea reclamelor și a conținutului, informații despre audiențe și dezvoltarea produselor

    Reclamele și conținutul pot fi personalizate pe baza unui profil. Pot fi adăugate date suplimentare pentru a personaliza mai bine reclamele și conținutul. Performanța reclamelor și conținutului poate fi măsurată. Pot fi obținute informații despre utilizatorii care au văzut reclamele și conținutul. Aceste date pot fi utilizate pentru a dezvolta sau îmbunătăți experiența utilizatorilor, sistemele și software-ul.

Dând clic pe ‘Sunt de acord’, permiteți utilizarea cookie-urilor menționate, a identificatorilor de dispozitiv, balizelor web sau altor tehnologii similare. Setările pot fi modificate din browser-ul dispozitivului dumneavoastră.

În anumite scopuri, interesele legitime pot prima asupra consimțământului. Puteți citi mai multe informații în acest sens în Politica privind Confidențialitatea Datelor și Cookie.